Time,TemperatureF,DewpointF,PressureIn,WindDirection,WindDirectionDegrees,WindSpeedMPH,WindSpeedGustMPH,Humidity,HourlyPrecipIn,Conditions,Clouds,dailyrainin,SoftwareType,DateUTC
2013-03-20 00:00:00,33.9,29.0,30.26,SW,214,0.0,4.0,82,0.00,,,0.00,WUHU216DAVISVP2,2013-03-20 05:00:00,
2013-03-20 00:05:00,33.5,28.3,30.26,SW,214,0.0,4.0,81,0.00,,,0.00,WUHU216DAVISVP2,2013-03-20 05:05:00,
2013-03-20 00:10:00,33.2,28.0,30.26,SW,214,0.0,3.0,81,0.00,,,0.00,WUHU216DAVISVP2,2013-03-20 05:10:00,
2013-03-20 00:15:00,32.8,27.9,30.26,SW,214,0.0,2.0,82,0.00,,,0.00,WUHU216DAVISVP2,2013-03-20 05:15:00,
2013-03-20 00:20:00,32.7,28.1,30.26,SW,214,2.0,3.0,83,0.00,,,0.00,WUHU216DAVISVP2,2013-03-20 05:20:00,
2013-03-20 00:25:00,32.8,28.5,30.26,SW,214,1.0,4.0,84,0.00,,,0.00,WUHU216DAVISVP2,2013-03-20 05:25:00,
2013-03-20 00:30:00,33.0,28.7,30.26,SW,214,2.0,4.0,84,0.00,,,0.00,WUHU216DAVISVP2,2013-03-20 05:30:00,
2013-03-20 00:35:00,33.1,28.8,30.26,SW,214,1.0,4.0,84,0.00,,,0.00,WUHU216DAVISVP2,2013-03-20 05:35:00,
2013-03-20 00:40:00,33.2,28.6,30.26,SW,214,2.0,4.0,83,0.00,,,0.00,WUHU216DAVISVP2,2013-03-20 05:40:00,
2013-03-20 00:45:00,33.2,28.6,30.26,SW,214,0.0,4.0,83,0.00,,,0.00,WUHU216DAVISVP2,2013-03-20 05:45:00,
2013-03-20 00:50:00,32.5,27.6,30.26,SW,214,0.0,4.0,82,0.00,,,0.00,WUHU216DAVISVP2,2013-03-20 05:50:00,
2013-03-20 00:55:00,31.8,27.5,30.26,SW,214,2.0,4.0,84,0.00,,,0.00,WUHU216DAVISVP2,2013-03-20 05:55:00,
2013-03-20 01:00:00,31.3,27.0,30.26,SW,214,1.0,3.0,84,0.00,,,0.00,WUHU216DAVISVP2,2013-03-20 06:00:00,
2013-03-20 01:05:00,31.1,27.1,30.25,SW,214,0.0,3.0,85,0.00,,,0.00,WUHU216DAVISVP2,2013-03-20 06:05:00,
2013-03-20 01:10:00,30.9,27.2,30.25,SW,214,0.0,3.0,86,0.00,,,0.00,WUHU216DAVISVP2,2013-03-20 06:10:00,
2013-03-20 01:15:00,30.8,27.1,30.25,SW,214,0.0,3.0,86,0.00,,,0.00,WUHU216DAVISVP2,2013-03-20 06:15:00,
2013-03-20 01:20:00,30.6,26.9,30.25,SW,214,0.0,0.0,86,0.00,,,0.00,WUHU216DAVISVP2,2013-03-20 06:20:00,
2013-03-20 01:25:00,30.5,26.8,30.25,SW,214,0.0,0.0,86,0.00,,,0.00,WUHU216DAVISVP2,2013-03-20 06:25:00,
2013-03-20 01:30:00,30.4,27.0,30.25,SW,214,0.0,0.0,87,0.00,,,0.00,WUHU216DAVISVP2,2013-03-20 06:30:00,
2013-03-20 01:35:00,30.2,26.8,30.25,SW,214,0.0,0.0,87,0.00,,,0.00,WUHU216DAVISVP2,2013-03-20 06:35:00,
2013-03-20 01:40:00,30.0,26.6,30.25,SW,214,0.0,0.0,87,0.00,,,0.00,WUHU216DAVISVP2,2013-03-20 06:40:00,
2013-03-20 01:45:00,29.9,26.5,30.25,SW,214,0.0,0.0,87,0.00,,,0.00,WUHU216DAVISVP2,2013-03-20 06:45:00,
2013-03-20 01:50:00,29.8,26.7,30.25,SW,214,0.0,0.0,88,0.00,,,0.00,WUHU216DAVISVP2,2013-03-20 06:50:00,
2013-03-20 01:55:00,29.7,26.6,30.25,SW,214,0.0,0.0,88,0.00,,,0.00,WUHU216DAVISVP2,2013-03-20 06:55:00,
2013-03-20 02:00:00,29.7,26.5,30.25,SW,214,0.0,0.0,88,0.00,,,0.00,WUHU216DAVISVP2,2013-03-20 07:00:00,
2013-03-20 02:05:00,29.6,26.4,30.25,SW,214,0.0,0.0,88,0.00,,,0.00,WUHU216DAVISVP2,2013-03-20 07:05:00,
2013-03-20 02:10:00,29.5,26.6,30.25,SW,214,0.0,0.0,89,0.00,,,0.00,WUHU216DAVISVP2,2013-03-20 07:10:00,
2013-03-20 02:15:00,29.6,26.7,30.24,SW,214,0.0,0.0,89,0.00,,,0.00,WUHU216DAVISVP2,2013-03-20 07:15:00,
2013-03-20 02:20:00,29.6,26.7,30.24,SW,214,0.0,0.0,89,0.00,,,0.00,WUHU216DAVISVP2,2013-03-20 07:20:00,
2013-03-20 02:25:00,29.7,26.8,30.25,SW,214,2.0,2.0,89,0.00,,,0.00,WUHU216DAVISVP2,2013-03-20 07:25:00,
2013-03-20 02:30:00,29.9,27.0,30.25,SW,214,1.0,3.0,89,0.00,,,0.00,WUHU216DAVISVP2,2013-03-20 07:30:00,
2013-03-20 02:35:00,29.9,27.0,30.25,SW,214,1.0,3.0,89,0.00,,,0.00,WUHU216DAVISVP2,2013-03-20 07:35:00,
2013-03-20 02:40:00,29.8,26.7,30.25,SW,214,2.0,3.0,88,0.00,,,0.00,WUHU216DAVISVP2,2013-03-20 07:40:00,
2013-03-20 02:45:00,29.7,26.5,30.25,SW,214,2.0,3.0,88,0.00,,,0.00,WUHU216DAVISVP2,2013-03-20 07:45:00,
2013-03-20 02:50:00,29.4,26.2,30.25,SW,214,1.0,3.0,88,0.00,,,0.00,WUHU216DAVISVP2,2013-03-20 07:50:00,
2013-03-20 02:55:00,29.1,26.2,30.25,SW,214,0.0,3.0,89,0.00,,,0.00,WUHU216DAVISVP2,2013-03-20 07:55:00,
2013-03-20 03:00:00,28.9,26.0,30.25,SW,214,0.0,3.0,89,0.00,,,0.00,WUHU216DAVISVP2,2013-03-20 08:00:00,
2013-03-20 03:05:00,28.9,26.0,30.25,SW,214,0.0,3.0,89,0.00,,,0.00,WUHU216DAVISVP2,2013-03-20 08:05:00,
2013-03-20 03:10:00,29.0,26.4,30.25,SW,214,0.0,0.0,90,0.00,,,0.00,WUHU216DAVISVP2,2013-03-20 08:10:00,
2013-03-20 03:15:00,29.1,26.4,30.25,SW,214,0.0,0.0,90,0.00,,,0.00,WUHU216DAVISVP2,2013-03-20 08:15:00,
2013-03-20 03:20:00,29.0,26.4,30.25,SW,214,0.0,0.0,90,0.00,,,0.00,WUHU216DAVISVP2,2013-03-20 08:20:00,
2013-03-20 03:25:00,29.0,26.4,30.25,SW,214,0.0,0.0,90,0.00,,,0.00,WUHU216DAVISVP2,2013-03-20 08:25:00,
2013-03-20 03:30:00,28.8,25.9,30.25,SW,214,0.0,0.0,89,0.00,,,0.00,WUHU216DAVISVP2,2013-03-20 08:30:00,
2013-03-20 03:35:00,28.6,25.8,30.25,SW,214,0.0,0.0,89,0.00,,,0.00,WUHU216DAVISVP2,2013-03-20 08:35:00,
2013-03-20 03:40:00,28.6,25.9,30.25,SW,214,0.0,0.0,90,0.00,,,0.00,WUHU216DAVISVP2,2013-03-20 08:40:00,
2013-03-20 03:45:00,28.6,26.0,30.25,SW,214,0.0,0.0,90,0.00,,,0.00,WUHU216DAVISVP2,2013-03-20 08:45:00,
2013-03-20 03:50:00,28.6,26.0,30.25,SW,214,0.0,0.0,90,0.00,,,0.00,WUHU216DAVISVP2,2013-03-20 08:50:00,
2013-03-20 03:55:00,28.5,25.9,30.25,SW,214,0.0,0.0,90,0.00,,,0.00,WUHU216DAVISVP2,2013-03-20 08:55:00,
2013-03-20 04:00:00,28.5,25.9,30.25,SW,214,0.0,0.0,90,0.00,,,0.00,WUHU216DAVISVP2,2013-03-20 09:00:00,
2013-03-20 04:05:00,28.6,26.0,30.24,SW,214,0.0,0.0,90,0.00,,,0.00,WUHU216DAVISVP2,2013-03-20 09:05:00,
2013-03-20 04:10:00,28.5,25.9,30.25,SW,214,0.0,0.0,90,0.00,,,0.00,WUHU216DAVISVP2,2013-03-20 09:10:00,
2013-03-20 04:15:00,28.4,25.8,30.24,SW,214,0.0,0.0,90,0.00,,,0.00,WUHU216DAVISVP2,2013-03-20 09:15:00,
2013-03-20 04:20:00,28.3,25.7,30.24,SW,214,0.0,0.0,90,0.00,,,0.00,WUHU216DAVISVP2,2013-03-20 09:20:00,
2013-03-20 04:25:00,28.3,25.7,30.24,SW,214,0.0,0.0,90,0.00,,,0.00,WUHU216DAVISVP2,2013-03-20 09:25:00,
2013-03-20 04:30:00,28.3,25.7,30.24,SW,214,1.0,2.0,90,0.00,,,0.00,WUHU216DAVISVP2,2013-03-20 09:30:00,
2013-03-20 04:35:00,28.4,25.8,30.24,SW,214,0.0,2.0,90,0.00,,,0.00,WUHU216DAVISVP2,2013-03-20 09:35:00,
2013-03-20 04:40:00,28.5,26.2,30.24,SW,214,0.0,2.0,91,0.00,,,0.00,WUHU216DAVISVP2,2013-03-20 09:40:00,
2013-03-20 04:45:00,28.6,26.0,30.24,SW,214,0.0,2.0,90,0.00,,,0.00,WUHU216DAVISVP2,2013-03-20 09:45:00,
2013-03-20 04:50:00,28.5,25.9,30.24,SW,214,0.0,2.0,90,0.00,,,0.00,WUHU216DAVISVP2,2013-03-20 09:50:00,
2013-03-20 04:55:00,28.4,25.8,30.25,SW,214,2.0,3.0,90,0.00,,,0.00,WUHU216DAVISVP2,2013-03-20 09:55:00,
2013-03-20 05:00:00,28.8,26.4,30.25,SSW,208,4.0,5.0,91,0.00,,,0.00,WUHU216DAVISVP2,2013-03-20 10:00:00,
2013-03-20 05:05:00,29.8,27.4,30.25,SSE,156,3.0,5.0,91,0.00,,,0.00,WUHU216DAVISVP2,2013-03-20 10:05:00,
2013-03-20 05:10:00,30.3,27.7,30.25,SSE,156,3.0,5.0,90,0.00,,,0.00,WUHU216DAVISVP2,2013-03-20 10:10:00,
2013-03-20 05:15:00,30.6,27.7,30.26,SSE,156,3.0,5.0,89,0.00,,,0.00,WUHU216DAVISVP2,2013-03-20 10:15:00,
2013-03-20 05:20:00,30.8,27.6,30.26,SSE,156,3.0,5.0,88,0.00,,,0.00,WUHU216DAVISVP2,2013-03-20 10:20:00,
2013-03-20 05:25:00,30.7,27.5,30.26,SSE,156,0.0,5.0,88,0.00,,,0.00,WUHU216DAVISVP2,2013-03-20 10:25:00,
2013-03-20 05:30:00,30.7,27.6,30.26,SSE,156,3.0,5.0,88,0.00,,,0.00,WUHU216DAVISVP2,2013-03-20 10:30:00,
2013-03-20 05:35:00,31.1,27.9,30.26,SSE,155,5.0,7.0,88,0.00,,,0.00,WUHU216DAVISVP2,2013-03-20 10:35:00,
2013-03-20 05:40:00,31.4,27.9,30.26,SSE,153,3.0,8.0,87,0.00,,,0.00,WUHU216DAVISVP2,2013-03-20 10:40:00,
2013-03-20 05:45:00,31.5,28.1,30.26,SSE,153,1.0,8.0,87,0.00,,,0.00,WUHU216DAVISVP2,2013-03-20 10:45:00,
2013-03-20 05:50:00,31.6,28.1,30.26,SSE,153,4.0,8.0,87,0.00,,,0.00,WUHU216DAVISVP2,2013-03-20 10:50:00,
2013-03-20 05:55:00,31.6,28.1,30.26,SSE,153,4.0,7.0,87,0.00,,,0.00,WUHU216DAVISVP2,2013-03-20 10:55:00,
2013-03-20 06:00:00,31.6,28.2,30.27,SSE,153,6.0,7.0,87,0.00,,,0.00,WUHU216DAVISVP2,2013-03-20 11:00:00,
2013-03-20 06:05:00,31.9,28.4,30.27,SSE,152,7.0,7.0,87,0.00,,,0.00,WUHU216DAVISVP2,2013-03-20 11:05:00,
2013-03-20 06:10:00,32.0,28.5,30.27,SSE,152,3.0,7.0,87,0.00,,,0.00,WUHU216DAVISVP2,2013-03-20 11:10:00,
2013-03-20 06:15:00,32.1,28.7,30.28,SSE,152,7.0,9.0,87,0.00,,,0.00,WUHU216DAVISVP2,2013-03-20 11:15:00,
2013-03-20 06:20:00,32.4,28.9,30.28,SSE,150,6.0,9.0,87,0.00,,,0.00,WUHU216DAVISVP2,2013-03-20 11:20:00,
2013-03-20 06:25:00,32.5,29.0,30.28,SSE,149,3.0,9.0,87,0.00,,,0.00,WUHU216DAVISVP2,2013-03-20 11:25:00,
2013-03-20 06:30:00,32.5,29.1,30.29,SE,146,5.0,11.0,87,0.00,,,0.00,WUHU216DAVISVP2,2013-03-20 11:30:00,
2013-03-20 06:35:00,32.5,29.3,30.29,SSE,148,6.0,13.0,88,0.00,,,0.00,WUHU216DAVISVP2,2013-03-20 11:35:00,
2013-03-20 06:40:00,32.5,29.3,30.30,SE,138,9.0,13.0,88,0.00,,,0.00,WUHU216DAVISVP2,2013-03-20 11:40:00,
2013-03-20 06:45:00,32.6,29.4,30.30,SSE,155,4.0,15.0,88,0.00,,,0.00,WUHU216DAVISVP2,2013-03-20 11:45:00,
2013-03-20 06:50:00,32.6,29.7,30.30,SSE,160,5.0,15.0,89,0.00,,,0.00,WUHU216DAVISVP2,2013-03-20 11:50:00,
2013-03-20 06:55:00,32.7,29.8,30.30,South,170,6.0,15.0,89,0.00,,,0.00,WUHU216DAVISVP2,2013-03-20 11:55:00,
2013-03-20 07:00:00,33.0,30.3,30.30,South,177,10.0,15.0,90,0.00,,,0.00,WUHU216DAVISVP2,2013-03-20 12:00:00,
2013-03-20 07:05:00,33.3,30.6,30.30,South,191,7.0,15.0,90,0.00,,,0.00,WUHU216DAVISVP2,2013-03-20 12:05:00,
2013-03-20 07:10:00,33.5,30.9,30.30,SSE,162,7.0,15.0,90,0.00,,,0.00,WUHU216DAVISVP2,2013-03-20 12:10:00,
2013-03-20 07:15:00,33.5,30.8,30.30,South,181,12.0,15.0,90,0.00,,,0.00,WUHU216DAVISVP2,2013-03-20 12:15:00,
2013-03-20 07:20:00,33.4,30.7,30.31,South,186,8.0,15.0,90,0.00,,,0.00,WUHU216DAVISVP2,2013-03-20 12:20:00,
2013-03-20 07:25:00,33.3,30.7,30.32,South,172,3.0,14.0,90,0.00,,,0.00,WUHU216DAVISVP2,2013-03-20 12:25:00,
2013-03-20 07:30:00,33.3,30.6,30.32,SSW,193,10.0,14.0,90,0.00,,,0.00,WUHU216DAVISVP2,2013-03-20 12:30:00,
2013-03-20 07:35:00,33.2,30.6,30.33,South,175,10.0,15.0,90,0.00,,,0.00,WUHU216DAVISVP2,2013-03-20 12:35:00,
2013-03-20 07:40:00,33.3,30.6,30.33,SSE,160,7.0,15.0,90,0.00,,,0.00,WUHU216DAVISVP2,2013-03-20 12:40:00,
2013-03-20 07:45:00,33.2,30.5,30.33,SSW,213,5.0,15.0,90,0.00,,,0.00,WUHU216DAVISVP2,2013-03-20 12:45:00,
2013-03-20 07:50:00,33.2,30.3,30.33,SW,221,8.0,17.0,89,0.00,,,0.00,WUHU216DAVISVP2,2013-03-20 12:50:00,
2013-03-20 07:55:00,33.3,30.3,30.33,SSE,166,11.0,17.0,89,0.00,,,0.00,WUHU216DAVISVP2,2013-03-20 12:55:00,
2013-03-20 08:00:00,33.3,30.1,30.34,South,178,10.0,17.0,88,0.00,,,0.00,WUHU216DAVISVP2,2013-03-20 13:00:00,
2013-03-20 08:05:00,33.2,30.0,30.34,SSE,160,10.0,17.0,88,0.00,,,0.00,WUHU216DAVISVP2,2013-03-20 13:05:00,
2013-03-20 08:10:00,33.0,29.5,30.34,South,175,10.0,14.0,87,0.00,,,0.00,WUHU216DAVISVP2,2013-03-20 13:10:00,
2013-03-20 08:15:00,32.8,29.3,30.34,South,183,6.0,14.0,87,0.00,,,0.00,WUHU216DAVISVP2,2013-03-20 13:15:00,
2013-03-20 08:20:00,32.7,28.6,30.34,South,173,11.0,15.0,85,0.00,,,0.00,WUHU216DAVISVP2,2013-03-20 13:20:00,
2013-03-20 08:25:00,32.5,27.9,30.34,SSE,160,9.0,16.0,83,0.00,,,0.00,WUHU216DAVISVP2,2013-03-20 13:25:00,
2013-03-20 08:30:00,32.3,27.5,30.34,SSE,157,6.0,16.0,82,0.00,,,0.00,WUHU216DAVISVP2,2013-03-20 13:30:00,
2013-03-20 08:35:00,32.2,27.0,30.34,South,191,11.0,16.0,81,0.00,,,0.00,WUHU216DAVISVP2,2013-03-20 13:35:00,
2013-03-20 08:40:00,32.0,26.3,30.35,SSW,196,10.0,16.0,79,0.00,,,0.00,WUHU216DAVISVP2,2013-03-20 13:40:00,
2013-03-20 08:45:00,32.0,24.0,30.35,South,188,2.0,17.0,72,0.00,,,0.00,WUHU216DAVISVP2,2013-03-20 13:45:00,
2013-03-20 08:50:00,31.9,24.0,30.36,SSW,207,13.0,18.0,72,0.00,,,0.00,WUHU216DAVISVP2,2013-03-20 13:50:00,
2013-03-20 08:55:00,31.8,23.5,30.36,South,170,10.0,18.0,71,0.00,,,0.00,WUHU216DAVISVP2,2013-03-20 13:55:00,
2013-03-20 09:00:00,31.4,22.1,30.35,South,184,12.0,18.0,68,0.00,,,0.00,WUHU216DAVISVP2,2013-03-20 14:00:00,
2013-03-20 09:05:00,31.1,20.7,30.35,South,183,10.0,18.0,65,0.00,,,0.00,WUHU216DAVISVP2,2013-03-20 14:05:00,
2013-03-20 09:10:00,31.0,20.3,30.35,SSE,166,3.0,16.0,64,0.00,,,0.00,WUHU216DAVISVP2,2013-03-20 14:10:00,
2013-03-20 09:15:00,31.1,20.0,30.35,SSE,164,7.0,16.0,63,0.00,,,0.00,WUHU216DAVISVP2,2013-03-20 14:15:00,
2013-03-20 09:20:00,31.2,20.2,30.35,SSE,149,10.0,16.0,63,0.00,,,0.00,WUHU216DAVISVP2,2013-03-20 14:20:00,
2013-03-20 09:25:00,31.1,19.6,30.35,South,169,8.0,15.0,62,0.00,,,0.00,WUHU216DAVISVP2,2013-03-20 14:25:00,
2013-03-20 09:30:00,30.9,19.4,30.35,South,175,8.0,15.0,62,0.00,,,0.00,WUHU216DAVISVP2,2013-03-20 14:30:00,
2013-03-20 09:35:00,30.8,19.8,30.35,South,187,3.0,15.0,63,0.00,,,0.00,WUHU216DAVISVP2,2013-03-20 14:35:00,
2013-03-20 09:40:00,31.0,19.9,30.35,SE,135,3.0,15.0,63,0.00,,,0.00,WUHU216DAVISVP2,2013-03-20 14:40:00,
2013-03-20 09:45:00,30.7,19.7,30.35,SE,146,6.0,13.0,63,0.00,,,0.00,WUHU216DAVISVP2,2013-03-20 14:45:00,
2013-03-20 09:50:00,30.5,19.5,30.35,South,180,5.0,13.0,63,0.00,,,0.00,WUHU216DAVISVP2,2013-03-20 14:50:00,
2013-03-20 09:55:00,30.7,20.0,30.35,South,170,5.0,13.0,64,0.00,,,0.00,WUHU216DAVISVP2,2013-03-20 14:55:00,
2013-03-20 10:00:00,30.9,20.2,30.35,South,170,5.0,13.0,64,0.00,,,0.00,WUHU216DAVISVP2,2013-03-20 15:00:00,
2013-03-20 10:05:00,30.9,20.2,30.35,South,171,9.0,11.0,64,0.00,,,0.00,WUHU216DAVISVP2,2013-03-20 15:05:00,
2013-03-20 10:10:00,31.4,18.8,30.35,South,177,4.0,15.0,59,0.00,,,0.00,WUHU216DAVISVP2,2013-03-20 15:10:00,
2013-03-20 10:15:00,31.8,19.1,30.35,SSE,168,9.0,15.0,59,0.00,,,0.00,WUHU216DAVISVP2,2013-03-20 15:15:00,
2013-03-20 10:20:00,31.8,17.0,30.35,South,177,11.0,19.0,54,0.00,,,0.00,WUHU216DAVISVP2,2013-03-20 15:20:00,
2013-03-20 10:25:00,31.7,16.9,30.35,South,185,5.0,19.0,54,0.00,,,0.00,WUHU216DAVISVP2,2013-03-20 15:25:00,
2013-03-20 10:30:00,32.1,16.9,30.35,ESE,123,4.0,19.0,53,0.00,,,0.00,WUHU216DAVISVP2,2013-03-20 15:30:00,
2013-03-20 10:35:00,31.8,15.7,30.35,SE,143,11.0,19.0,51,0.00,,,0.00,WUHU216DAVISVP2,2013-03-20 15:35:00,
2013-03-20 10:40:00,31.5,16.3,30.35,SE,124,11.0,22.0,53,0.00,,,0.00,WUHU216DAVISVP2,2013-03-20 15:40:00,
2013-03-20 10:45:00,31.4,16.2,30.35,South,183,12.0,22.0,53,0.00,,,0.00,WUHU216DAVISVP2,2013-03-20 15:45:00,
2013-03-20 10:50:00,31.3,13.8,30.35,South,177,12.0,22.0,48,0.00,,,0.00,WUHU216DAVISVP2,2013-03-20 15:50:00,
2013-03-20 10:55:00,31.6,11.5,30.35,SE,142,12.0,22.0,43,0.00,,,0.00,WUHU216DAVISVP2,2013-03-20 15:55:00,
2013-03-20 11:00:00,31.6,10.4,30.35,SSE,150,16.0,21.0,41,0.00,,,0.00,WUHU216DAVISVP2,2013-03-20 16:00:00,
2013-03-20 11:05:00,31.8,10.6,30.35,South,181,9.0,20.0,41,0.00,,,0.00,WUHU216DAVISVP2,2013-03-20 16:05:00,
2013-03-20 11:10:00,32.2,11.4,30.34,SSE,155,15.0,19.0,42,0.00,,,0.00,WUHU216DAVISVP2,2013-03-20 16:10:00,
2013-03-20 11:15:00,31.9,10.6,30.34,SSE,162,8.0,19.0,41,0.00,,,0.00,WUHU216DAVISVP2,2013-03-20 16:15:00,
2013-03-20 11:20:00,31.6,11.5,30.34,South,177,10.0,18.0,43,0.00,,,0.00,WUHU216DAVISVP2,2013-03-20 16:20:00,
2013-03-20 11:25:00,32.0,12.9,30.34,SE,129,11.0,18.0,45,0.00,,,0.00,WUHU216DAVISVP2,2013-03-20 16:25:00,
2013-03-20 11:30:00,31.7,12.2,30.34,SSE,162,13.0,22.0,44,0.00,,,0.00,WUHU216DAVISVP2,2013-03-20 16:30:00,
2013-03-20 11:35:00,31.9,13.3,30.34,South,181,3.0,22.0,46,0.00,,,0.00,WUHU216DAVISVP2,2013-03-20 16:35:00,
2013-03-20 11:40:00,32.1,13.0,30.35,South,169,9.0,22.0,45,0.00,,,0.00,WUHU216DAVISVP2,2013-03-20 16:40:00,
2013-03-20 11:45:00,32.4,9.4,30.35,SSE,155,19.0,22.0,38,0.00,,,0.00,WUHU216DAVISVP2,2013-03-20 16:45:00,
2013-03-20 11:50:00,32.3,5.5,30.35,SE,144,14.0,23.0,32,0.00,,,0.00,WUHU216DAVISVP2,2013-03-20 16:50:00,
2013-03-20 11:55:00,31.8,5.7,30.35,South,181,9.0,25.0,33,0.00,,,0.00,WUHU216DAVISVP2,2013-03-20 16:55:00,
2013-03-20 12:00:00,32.2,6.7,30.34,SSW,192,11.0,25.0,34,0.00,,,0.00,WUHU216DAVISVP2,2013-03-20 17:00:00,
2013-03-20 12:05:00,32.2,7.4,30.34,SSW,206,10.0,25.0,35,0.00,,,0.00,WUHU216DAVISVP2,2013-03-20 17:05:00,
2013-03-20 12:10:00,32.0,7.2,30.34,SSE,162,9.0,20.0,35,0.00,,,0.00,WUHU216DAVISVP2,2013-03-20 17:10:00,
2013-03-20 12:15:00,32.4,8.1,30.34,South,170,11.0,19.0,36,0.00,,,0.00,WUHU216DAVISVP2,2013-03-20 17:15:00,
2013-03-20 12:20:00,32.5,8.3,30.34,SSE,158,10.0,19.0,36,0.00,,,0.00,WUHU216DAVISVP2,2013-03-20 17:20:00,
2013-03-20 12:25:00,32.8,9.1,30.34,SSE,166,13.0,21.0,37,0.00,,,0.00,WUHU216DAVISVP2,2013-03-20 17:25:00,
2013-03-20 12:30:00,32.3,9.3,30.33,SE,146,10.0,21.0,38,0.00,,,0.00,WUHU216DAVISVP2,2013-03-20 17:30:00,
2013-03-20 12:35:00,32.2,9.8,30.33,South,172,12.0,21.0,39,0.00,,,0.00,WUHU216DAVISVP2,2013-03-20 17:35:00,
2013-03-20 12:40:00,32.8,10.9,30.33,SSE,157,14.0,19.0,40,0.00,,,0.00,WUHU216DAVISVP2,2013-03-20 17:40:00,
2013-03-20 12:45:00,33.0,11.1,30.33,SSE,153,7.0,18.0,40,0.00,,,0.00,WUHU216DAVISVP2,2013-03-20 17:45:00,
2013-03-20 12:50:00,33.1,12.3,30.32,SE,137,13.0,21.0,42,0.00,,,0.00,WUHU216DAVISVP2,2013-03-20 17:50:00,
2013-03-20 12:55:00,33.3,12.5,30.32,South,184,9.0,21.0,42,0.00,,,0.00,WUHU216DAVISVP2,2013-03-20 17:55:00,
2013-03-20 13:00:00,33.7,12.9,30.32,SE,146,13.0,20.0,42,0.00,,,0.00,WUHU216DAVISVP2,2013-03-20 18:00:00,
2013-03-20 13:05:00,34.5,10.0,30.32,SE,139,17.0,21.0,36,0.00,,,0.00,WUHU216DAVISVP2,2013-03-20 18:05:00,
2013-03-20 13:10:00,34.0,7.7,30.31,SE,140,15.0,28.0,33,0.00,,,0.00,WUHU216DAVISVP2,2013-03-20 18:10:00,
2013-03-20 13:15:00,33.6,6.6,30.31,South,169,5.0,28.0,32,0.00,,,0.00,WUHU216DAVISVP2,2013-03-20 18:15:00,
2013-03-20 13:20:00,33.8,6.8,30.31,SE,143,11.0,27.0,32,0.00,,,0.00,WUHU216DAVISVP2,2013-03-20 18:20:00,
2013-03-20 13:25:00,34.2,3.5,30.31,South,178,12.0,27.0,27,0.00,,,0.00,WUHU216DAVISVP2,2013-03-20 18:25:00,
2013-03-20 13:30:00,33.9,5.5,30.31,SSE,161,15.0,24.0,30,0.00,,,0.00,WUHU216DAVISVP2,2013-03-20 18:30:00,
2013-03-20 13:35:00,33.8,6.1,30.31,South,172,14.0,24.0,31,0.00,,,0.00,WUHU216DAVISVP2,2013-03-20 18:35:00,
2013-03-20 13:40:00,34.1,7.8,30.30,SE,129,10.0,24.0,33,0.00,,,0.00,WUHU216DAVISVP2,2013-03-20 18:40:00,
2013-03-20 13:45:00,34.4,6.6,30.30,South,170,15.0,22.0,31,0.00,,,0.00,WUHU216DAVISVP2,2013-03-20 18:45:00,
2013-03-20 13:50:00,34.7,7.6,30.30,South,186,5.0,22.0,32,0.00,,,0.00,WUHU216DAVISVP2,2013-03-20 18:50:00,
2013-03-20 13:55:00,34.9,8.4,30.29,SSE,158,11.0,22.0,33,0.00,,,0.00,WUHU216DAVISVP2,2013-03-20 18:55:00,
2013-03-20 14:00:00,34.7,7.6,30.29,SE,141,14.0,23.0,32,0.00,,,0.00,WUHU216DAVISVP2,2013-03-20 19:00:00,
2013-03-20 14:05:00,34.8,8.3,30.28,SE,131,17.0,23.0,33,0.00,,,0.00,WUHU216DAVISVP2,2013-03-20 19:05:00,
2013-03-20 14:10:00,34.7,8.3,30.28,SE,146,15.0,25.0,33,0.00,,,0.00,WUHU216DAVISVP2,2013-03-20 19:10:00,
2013-03-20 14:15:00,35.2,10.0,30.27,SSE,162,11.0,25.0,35,0.00,,,0.00,WUHU216DAVISVP2,2013-03-20 19:15:00,
2013-03-20 14:20:00,35.9,10.7,30.27,SSE,160,5.0,25.0,35,0.00,,,0.00,WUHU216DAVISVP2,2013-03-20 19:20:00,
2013-03-20 14:25:00,36.2,8.2,30.27,SE,137,21.0,26.0,31,0.00,,,0.00,WUHU216DAVISVP2,2013-03-20 19:25:00,
2013-03-20 14:30:00,35.6,5.5,30.26,SE,146,20.0,30.0,28,0.00,,,0.00,WUHU216DAVISVP2,2013-03-20 19:30:00,
2013-03-20 14:35:00,35.6,7.0,30.26,SE,146,12.0,30.0,30,0.00,,,0.00,WUHU216DAVISVP2,2013-03-20 19:35:00,
2013-03-20 14:40:00,35.5,6.9,30.26,ESE,120,20.0,30.0,30,0.00,,,0.00,WUHU216DAVISVP2,2013-03-20 19:40:00,
2013-03-20 14:45:00,35.9,7.2,30.26,SSE,148,2.0,30.0,30,0.00,,,0.00,WUHU216DAVISVP2,2013-03-20 19:45:00,
2013-03-20 14:50:00,36.3,7.6,30.25,South,175,13.0,26.0,30,0.00,,,0.00,WUHU216DAVISVP2,2013-03-20 19:50:00,
2013-03-20 14:56:00,36.1,8.1,30.25,SE,136,14.0,26.0,31,0.00,,,0.00,WUHU216DAVISVP2,2013-03-20 19:56:00,
2013-03-20 15:03:00,36.5,9.2,30.25,South,174,16.0,24.0,32,0.00,,,0.00,WUHU216DAVISVP2,2013-03-20 20:03:00,
2013-03-20 15:13:00,36.7,9.3,30.25,SSE,148,14.0,23.0,32,0.00,,,0.00,WUHU216DAVISVP2,2013-03-20 20:13:00,
2013-03-20 15:18:00,36.9,10.9,30.24,South,188,5.0,23.0,34,0.00,,,0.00,WUHU216DAVISVP2,2013-03-20 20:18:00,
2013-03-20 15:23:00,37.2,10.5,30.24,South,173,11.0,22.0,33,0.00,,,0.00,WUHU216DAVISVP2,2013-03-20 20:23:00,
2013-03-20 15:28:00,37.3,11.3,30.24,SE,125,9.0,22.0,34,0.00,,,0.00,WUHU216DAVISVP2,2013-03-20 20:28:00,
2013-03-20 15:33:00,37.4,12.7,30.24,SSE,160,16.0,20.0,36,0.00,,,0.00,WUHU216DAVISVP2,2013-03-20 20:33:00,
2013-03-20 15:38:00,37.3,10.6,30.23,SSE,156,13.0,24.0,33,0.00,,,0.00,WUHU216DAVISVP2,2013-03-20 20:38:00,
2013-03-20 15:43:00,37.7,10.9,30.23,ESE,122,21.0,25.0,33,0.00,,,0.00,WUHU216DAVISVP2,2013-03-20 20:43:00,
2013-03-20 15:48:00,37.7,8.8,30.23,ESE,112,15.0,26.0,30,0.00,,,0.00,WUHU216DAVISVP2,2013-03-20 20:48:00,
2013-03-20 15:53:00,37.8,8.2,30.23,SE,131,16.0,27.0,29,0.00,,,0.00,WUHU216DAVISVP2,2013-03-20 20:53:00,
2013-03-20 15:58:00,37.7,8.1,30.23,SE,135,13.0,27.0,29,0.00,,,0.00,WUHU216DAVISVP2,2013-03-20 20:58:00,
2013-03-20 16:03:00,38.0,9.0,30.23,SE,140,9.0,27.0,30,0.00,,,0.00,WUHU216DAVISVP2,2013-03-20 21:03:00,
2013-03-20 16:08:00,38.0,8.3,30.22,SE,129,11.0,27.0,29,0.00,,,0.00,WUHU216DAVISVP2,2013-03-20 21:08:00,
2013-03-20 16:13:00,38.1,9.9,30.22,SSE,151,5.0,23.0,31,0.00,,,0.00,WUHU216DAVISVP2,2013-03-20 21:13:00,
2013-03-20 16:18:00,38.3,8.6,30.21,SSE,164,14.0,23.0,29,0.00,,,0.00,WUHU216DAVISVP2,2013-03-20 21:18:00,
2013-03-20 16:23:00,38.4,9.4,30.21,SE,125,18.0,23.0,30,0.00,,,0.00,WUHU216DAVISVP2,2013-03-20 21:23:00,
2013-03-20 16:28:00,38.2,8.5,30.21,SE,131,12.0,25.0,29,0.00,,,0.00,WUHU216DAVISVP2,2013-03-20 21:28:00,
2013-03-20 16:33:00,38.6,9.6,30.21,SSE,149,6.0,25.0,30,0.00,,,0.00,WUHU216DAVISVP2,2013-03-20 21:33:00,
2013-03-20 16:38:00,38.9,9.9,30.20,SSE,155,10.0,23.0,30,0.00,,,0.00,WUHU216DAVISVP2,2013-03-20 21:38:00,
2013-03-20 16:43:00,39.4,11.0,30.21,SSE,162,11.0,23.0,31,0.00,,,0.00,WUHU216DAVISVP2,2013-03-20 21:43:00,
2013-03-20 16:48:00,39.6,9.0,30.20,SE,133,16.0,21.0,28,0.00,,,0.00,WUHU216DAVISVP2,2013-03-20 21:48:00,
2013-03-20 16:53:00,39.6,11.2,30.20,SE,134,19.0,22.0,31,0.00,,,0.00,WUHU216DAVISVP2,2013-03-20 21:53:00,
2013-03-20 16:58:00,39.8,11.4,30.20,SE,135,5.0,23.0,31,0.00,,,0.00,WUHU216DAVISVP2,2013-03-20 21:58:00,
2013-03-20 17:03:00,39.9,12.1,30.20,SE,143,8.0,25.0,32,0.00,,,0.00,WUHU216DAVISVP2,2013-03-20 22:03:00,
2013-03-20 17:09:00,39.8,9.9,30.21,SSE,149,12.0,25.0,29,0.00,,,0.00,WUHU216DAVISVP2,2013-03-20 22:09:00,
2013-03-20 17:14:00,39.7,11.3,30.20,SE,142,11.0,23.0,31,0.00,,,0.00,WUHU216DAVISVP2,2013-03-20 22:14:00,
2013-03-20 17:19:00,39.6,9.7,30.20,SSE,156,8.0,24.0,29,0.00,,,0.00,WUHU216DAVISVP2,2013-03-20 22:19:00,
2013-03-20 17:24:00,39.9,12.2,30.21,SE,129,14.0,24.0,32,0.00,,,0.00,WUHU216DAVISVP2,2013-03-20 22:24:00,
2013-03-20 17:29:00,39.8,10.7,30.21,SSE,157,25.0,25.0,30,0.00,,,0.00,WUHU216DAVISVP2,2013-03-20 22:29:00,
2013-03-20 17:34:00,39.8,12.1,30.20,South,183,9.0,25.0,32,0.00,,,0.00,WUHU216DAVISVP2,2013-03-20 22:34:00,
2013-03-20 17:39:00,40.0,11.6,30.20,SE,135,13.0,25.0,31,0.00,,,0.00,WUHU216DAVISVP2,2013-03-20 22:39:00,
2013-03-20 17:44:00,40.3,11.8,30.20,ESE,116,8.0,25.0,31,0.00,,,0.00,WUHU216DAVISVP2,2013-03-20 22:44:00,
2013-03-20 17:49:00,40.3,11.0,30.20,SSE,154,15.0,20.0,30,0.00,,,0.00,WUHU216DAVISVP2,2013-03-20 22:49:00,
2013-03-20 17:54:00,40.1,11.6,30.20,SE,133,10.0,25.0,31,0.00,,,0.00,WUHU216DAVISVP2,2013-03-20 22:54:00,
2013-03-20 17:59:00,40.4,12.6,30.20,SSE,150,6.0,25.0,32,0.00,,,0.00,WUHU216DAVISVP2,2013-03-20 22:59:00,
2013-03-20 18:04:00,40.4,13.3,30.20,SSE,147,7.0,25.0,33,0.00,,,0.00,WUHU216DAVISVP2,2013-03-20 23:04:00,
2013-03-20 18:09:00,40.3,12.6,30.20,SE,144,11.0,17.0,32,0.00,,,0.00,WUHU216DAVISVP2,2013-03-20 23:09:00,
2013-03-20 18:14:00,39.9,13.5,30.20,ESE,123,9.0,17.0,34,0.00,,,0.00,WUHU216DAVISVP2,2013-03-20 23:14:00,
2013-03-20 18:19:00,39.9,12.8,30.20,SE,134,10.0,17.0,33,0.00,,,0.00,WUHU216DAVISVP2,2013-03-20 23:19:00,
2013-03-20 18:24:00,39.7,12.7,30.19,SSE,166,10.0,17.0,33,0.00,,,0.00,WUHU216DAVISVP2,2013-03-20 23:24:00,
2013-03-20 18:29:00,39.6,12.6,30.19,SSE,148,10.0,17.0,33,0.00,,,0.00,WUHU216DAVISVP2,2013-03-20 23:29:00,
2013-03-20 18:34:00,39.3,13.1,30.19,SE,128,12.0,17.0,34,0.00,,,0.00,WUHU216DAVISVP2,2013-03-20 23:34:00,
2013-03-20 18:39:00,39.2,14.2,30.19,SE,131,7.0,15.0,36,0.00,,,0.00,WUHU216DAVISVP2,2013-03-20 23:39:00,
2013-03-20 18:44:00,39.3,13.0,30.19,SSE,163,10.0,15.0,34,0.00,,,0.00,WUHU216DAVISVP2,2013-03-20 23:44:00,
2013-03-20 18:49:00,39.2,13.0,30.19,South,173,11.0,15.0,34,0.00,,,0.00,WUHU216DAVISVP2,2013-03-20 23:49:00,
2013-03-20 18:54:00,39.0,12.7,30.18,SSE,155,6.0,17.0,34,0.00,,,0.00,WUHU216DAVISVP2,2013-03-20 23:54:00,
2013-03-20 18:59:00,38.7,11.8,30.18,SE,141,8.0,17.0,33,0.00,,,0.00,WUHU216DAVISVP2,2013-03-20 23:59:00,
2013-03-20 19:04:00,38.3,12.1,30.18,SSE,154,5.0,17.0,34,0.00,,,0.00,WUHU216DAVISVP2,2013-03-21 00:04:00,
2013-03-20 19:09:00,37.9,12.4,30.18,SSE,152,0.0,14.0,35,0.00,,,0.00,WUHU216DAVISVP2,2013-03-21 00:09:00,
2013-03-20 19:14:00,37.6,12.8,30.18,SSE,153,2.0,14.0,36,0.00,,,0.00,WUHU216DAVISVP2,2013-03-21 00:14:00,
2013-03-20 19:19:00,37.2,12.5,30.18,South,172,5.0,11.0,36,0.00,,,0.00,WUHU216DAVISVP2,2013-03-21 00:19:00,
2013-03-20 19:24:00,36.8,12.1,30.18,SE,143,4.0,9.0,36,0.00,,,0.00,WUHU216DAVISVP2,2013-03-21 00:24:00,
2013-03-20 19:29:00,36.4,12.4,30.17,SE,143,2.0,9.0,37,0.00,,,0.00,WUHU216DAVISVP2,2013-03-21 00:29:00,
2013-03-20 19:34:00,36.1,12.7,30.17,SE,143,3.0,9.0,38,0.00,,,0.00,WUHU216DAVISVP2,2013-03-21 00:34:00,
2013-03-20 19:39:00,35.8,12.4,30.17,SE,143,4.0,8.0,38,0.00,,,0.00,WUHU216DAVISVP2,2013-03-21 00:39:00,
2013-03-20 19:44:00,35.5,12.8,30.17,SE,143,0.0,7.0,39,0.00,,,0.00,WUHU216DAVISVP2,2013-03-21 00:44:00,
2013-03-20 19:49:00,35.3,13.2,30.17,SE,143,2.0,7.0,40,0.00,,,0.00,WUHU216DAVISVP2,2013-03-21 00:49:00,
2013-03-20 19:54:00,35.1,13.5,30.17,SE,143,3.0,7.0,41,0.00,,,0.00,WUHU216DAVISVP2,2013-03-21 00:54:00,
2013-03-20 19:59:00,34.8,13.9,30.17,SE,143,1.0,5.0,42,0.00,,,0.00,WUHU216DAVISVP2,2013-03-21 00:59:00,
2013-03-20 20:04:00,34.5,13.6,30.17,SE,143,3.0,4.0,42,0.00,,,0.00,WUHU216DAVISVP2,2013-03-21 01:04:00,
2013-03-20 20:09:00,34.3,13.4,30.17,SE,143,0.0,4.0,42,0.00,,,0.00,WUHU216DAVISVP2,2013-03-21 01:09:00,
2013-03-20 20:14:00,34.1,13.8,30.17,SE,143,2.0,3.0,43,0.00,,,0.00,WUHU216DAVISVP2,2013-03-21 01:14:00,
2013-03-20 20:19:00,33.9,13.6,30.17,SE,143,1.0,3.0,43,0.00,,,0.00,WUHU216DAVISVP2,2013-03-21 01:19:00,
2013-03-20 20:24:00,33.8,13.5,30.17,SE,143,0.0,3.0,43,0.00,,,0.00,WUHU216DAVISVP2,2013-03-21 01:24:00,
2013-03-20 20:29:00,33.5,13.3,30.17,SE,143,2.0,3.0,43,0.00,,,0.00,WUHU216DAVISVP2,2013-03-21 01:29:00,
2013-03-20 20:34:00,33.3,13.0,30.17,SE,143,2.0,4.0,43,0.00,,,0.00,WUHU216DAVISVP2,2013-03-21 01:34:00,
2013-03-20 20:39:00,33.2,13.5,30.17,SE,143,3.0,4.0,44,0.00,,,0.00,WUHU216DAVISVP2,2013-03-21 01:39:00,
2013-03-20 20:44:00,32.9,13.3,30.16,SE,143,1.0,4.0,44,0.00,,,0.00,WUHU216DAVISVP2,2013-03-21 01:44:00,
2013-03-20 20:49:00,32.8,13.7,30.17,SE,143,0.0,4.0,45,0.00,,,0.00,WUHU216DAVISVP2,2013-03-21 01:49:00,
2013-03-20 20:54:00,32.6,13.4,30.17,SE,143,2.0,4.0,45,0.00,,,0.00,WUHU216DAVISVP2,2013-03-21 01:54:00,
2013-03-20 20:59:00,32.5,13.3,30.17,SE,143,0.0,4.0,45,0.00,,,0.00,WUHU216DAVISVP2,2013-03-21 01:59:00,
2013-03-20 21:04:00,32.2,13.6,30.17,SE,143,1.0,3.0,46,0.00,,,0.00,WUHU216DAVISVP2,2013-03-21 02:04:00,
2013-03-20 21:09:00,32.0,13.4,30.17,SE,143,0.0,3.0,46,0.00,,,0.00,WUHU216DAVISVP2,2013-03-21 02:09:00,
2013-03-20 21:14:00,31.8,13.7,30.16,SE,143,3.0,4.0,47,0.00,,,0.00,WUHU216DAVISVP2,2013-03-21 02:14:00,
2013-03-20 21:19:00,31.5,13.5,30.16,SE,143,3.0,5.0,47,0.00,,,0.00,WUHU216DAVISVP2,2013-03-21 02:19:00,
2013-03-20 21:24:00,31.3,13.8,30.16,SE,143,3.0,5.0,48,0.00,,,0.00,WUHU216DAVISVP2,2013-03-21 02:24:00,
2013-03-20 21:29:00,31.4,13.4,30.16,SE,143,2.0,7.0,47,0.00,,,0.00,WUHU216DAVISVP2,2013-03-21 02:29:00,
2013-03-20 21:34:00,31.4,13.8,30.16,SE,143,0.0,7.0,48,0.00,,,0.00,WUHU216DAVISVP2,2013-03-21 02:34:00,
2013-03-20 21:39:00,31.3,13.8,30.16,SE,143,0.0,7.0,48,0.00,,,0.00,WUHU216DAVISVP2,2013-03-21 02:39:00,
2013-03-20 21:44:00,31.2,13.2,30.16,SE,143,2.0,4.0,47,0.00,,,0.00,WUHU216DAVISVP2,2013-03-21 02:44:00,
2013-03-20 21:49:00,31.1,13.1,30.16,SE,143,0.0,4.0,47,0.00,,,0.00,WUHU216DAVISVP2,2013-03-21 02:49:00,
2013-03-20 21:54:00,31.1,12.6,30.16,SE,143,1.0,4.0,46,0.00,,,0.00,WUHU216DAVISVP2,2013-03-21 02:54:00,
2013-03-20 21:59:00,31.0,12.5,30.16,SE,143,1.0,4.0,46,0.00,,,0.00,WUHU216DAVISVP2,2013-03-21 02:59:00,
2013-03-20 22:04:00,31.0,13.0,30.16,SE,143,3.0,4.0,47,0.00,,,0.00,WUHU216DAVISVP2,2013-03-21 03:04:00,
2013-03-20 22:09:00,31.0,13.0,30.16,SE,143,3.0,5.0,47,0.00,,,0.00,WUHU216DAVISVP2,2013-03-21 03:09:00,
2013-03-20 22:14:00,30.9,12.9,30.16,SE,143,2.0,5.0,47,0.00,,,0.00,WUHU216DAVISVP2,2013-03-21 03:14:00,
2013-03-20 22:19:00,30.8,13.3,30.16,SE,143,0.0,5.0,48,0.00,,,0.00,WUHU216DAVISVP2,2013-03-21 03:19:00,
2013-03-20 22:24:00,30.6,13.2,30.17,SE,143,2.0,5.0,48,0.00,,,0.00,WUHU216DAVISVP2,2013-03-21 03:24:00,
2013-03-20 22:29:00,30.5,13.0,30.17,SE,143,1.0,5.0,48,0.00,,,0.00,WUHU216DAVISVP2,2013-03-21 03:29:00,
2013-03-20 22:34:00,30.4,13.4,30.17,SE,143,0.0,5.0,49,0.00,,,0.00,WUHU216DAVISVP2,2013-03-21 03:34:00,
2013-03-20 22:39:00,30.3,13.3,30.17,SE,143,0.0,4.0,49,0.00,,,0.00,WUHU216DAVISVP2,2013-03-21 03:39:00,
2013-03-20 22:44:00,30.0,13.5,30.17,SE,143,0.0,3.0,50,0.00,,,0.00,WUHU216DAVISVP2,2013-03-21 03:44:00,
2013-03-20 22:49:00,29.7,13.3,30.17,SE,143,1.0,2.0,50,0.00,,,0.00,WUHU216DAVISVP2,2013-03-21 03:49:00,
2013-03-20 22:54:00,29.6,13.6,30.17,SE,143,0.0,2.0,51,0.00,,,0.00,WUHU216DAVISVP2,2013-03-21 03:54:00,
2013-03-20 22:59:00,29.4,13.9,30.17,SE,143,0.0,2.0,52,0.00,,,0.00,WUHU216DAVISVP2,2013-03-21 03:59:00,
2013-03-20 23:00:00,29.4,13.9,30.17,SE,143,0.0,2.0,52,0.00,,,0.00,WUHU216DAVISVP2,2013-03-21 04:00:00,
2013-03-20 23:05:00,29.0,13.5,30.17,SE,143,0.0,2.0,52,0.00,,,0.00,WUHU216DAVISVP2,2013-03-21 04:05:00,
2013-03-20 23:10:00,28.9,13.8,30.17,SE,143,0.0,1.0,53,0.00,,,0.00,WUHU216DAVISVP2,2013-03-21 04:10:00,
2013-03-20 23:15:00,28.9,13.4,30.17,SE,143,0.0,1.0,52,0.00,,,0.00,WUHU216DAVISVP2,2013-03-21 04:15:00,
2013-03-20 23:20:00,28.8,13.4,30.17,SE,143,0.0,1.0,52,0.00,,,0.00,WUHU216DAVISVP2,2013-03-21 04:20:00,
2013-03-20 23:25:00,28.7,14.2,30.17,SE,143,0.0,1.0,54,0.00,,,0.00,WUHU216DAVISVP2,2013-03-21 04:25:00,
2013-03-20 23:30:00,28.7,13.7,30.17,SE,143,0.0,1.0,53,0.00,,,0.00,WUHU216DAVISVP2,2013-03-21 04:30:00,
2013-03-20 23:35:00,28.7,13.2,30.16,SE,143,0.0,2.0,52,0.00,,,0.00,WUHU216DAVISVP2,2013-03-21 04:35:00,
2013-03-20 23:40:00,28.7,12.8,30.16,SE,143,0.0,3.0,51,0.00,,,0.00,WUHU216DAVISVP2,2013-03-21 04:40:00,
2013-03-20 23:45:00,28.7,13.2,30.16,SE,143,1.0,3.0,52,0.00,,,0.00,WUHU216DAVISVP2,2013-03-21 04:45:00,
2013-03-20 23:50:00,28.7,13.2,30.15,SE,143,0.0,3.0,52,0.00,,,0.00,WUHU216DAVISVP2,2013-03-21 04:50:00,
2013-03-20 23:55:00,28.6,13.1,30.15,SE,143,0.0,3.0,52,0.00,,,0.00,WUHU216DAVISVP2,2013-03-21 04:55:00,